| time (UTC) | temp F | wind direction | speed MPH | gust MPH | rain 1hr in | rain 24hr in | rain mn in | humidity % | barometer mb |
| 20260906220512 | 74 | 226 | 4.0 | 9.0 | 0.00 | 0.00 | 0.00 | 22 | 1025.3 |
| 20260906220024 | 75 | 285 | 3.0 | 9.0 | 0.00 | 0.00 | 0.00 | 21 | 1025.5 |
| 20260906215515 | 75 | 263 | 2.0 | 9.0 | 0.00 | 0.00 | 0.00 | 21 | 1025.6 |
| 20260906215012 | 76 | 302 | 6.0 | 12.0 | 0.00 | 0.00 | 0.00 | 21 | 1025.6 |
| 20260906214536 | 76 | 255 | 8.0 | 15.0 | 0.00 | 0.00 | 0.00 | 21 | 1025.7 |
| 20260906214014 | 77 | 312 | 8.0 | 15.0 | 0.00 | 0.00 | 0.00 | 21 | 1025.6 |
| 20260906213512 | 78 | 257 | 11.0 | 15.0 | 0.00 | 0.00 | 0.00 | 21 | 1025.7 |
| 20260906213022 | 78 | 281 | 6.0 | 17.0 | 0.00 | 0.00 | 0.00 | 21 | 1025.8 |
| 20260906212513 | 76 | 326 | 2.0 | 17.0 | 0.00 | 0.00 | 0.00 | 22 | 1025.9 |
| 20260906212012 | 76 | 255 | 8.0 | 17.0 | 0.00 | 0.00 | 0.00 | 21 | 1025.9 |
| 20260906211522 | 77 | 225 | 4.0 | 20.0 | 0.00 | 0.00 | 0.00 | 22 | 1026.0 |
| 20260906211013 | 76 | 256 | 11.0 | 22.0 | 0.00 | 0.00 | 0.00 | 23 | 1026.0 |
| 20260906210515 | 77 | 261 | 15.0 | 22.0 | 0.00 | 0.00 | 0.00 | 22 | 1025.9 |
| 20260906210039 | 77 | 236 | 5.0 | 12.0 | 0.00 | 0.00 | 0.00 | 22 | 1026.1 |
| 20260906205514 | 76 | 276 | 6.0 | 12.0 | 0.00 | 0.00 | 0.00 | 24 | 1026.3 |
| 20260906205014 | 75 | 321 | 4.0 | 7.0 | 0.00 | 0.00 | 0.00 | 24 | 1026.5 |
| 20260906204524 | 75 | 14 | 3.0 | 16.0 | 0.00 | 0.00 | 0.00 | 25 | 1026.5 |
| 20260906204013 | 74 | 238 | 6.0 | 16.0 | 0.00 | 0.00 | 0.00 | 24 | 1026.5 |
| 20260906203512 | 75 | 236 | 9.0 | 15.0 | 0.00 | 0.00 | 0.00 | 24 | 1026.5 |
| 20260906203026 | 75 | 234 | 10.0 | 16.0 | 0.00 | 0.00 | 0.00 | 24 | 1026.5 |
| 20260906202513 | 75 | 296 | 10.0 | 16.0 | 0.00 | 0.00 | 0.00 | 24 | 1026.5 |
| 20260906202013 | 76 | 296 | 6.0 | 13.0 | 0.00 | 0.00 | 0.00 | 24 | 1026.6 |
| 20260906201525 | 75 | 249 | 6.0 | 14.0 | 0.00 | 0.00 | 0.00 | 24 | 1026.6 |
| 20260906201015 | 75 | 265 | 9.0 | 17.0 | 0.00 | 0.00 | 0.00 | 25 | 1026.7 |
| 20260906200511 | 75 | 251 | 7.0 | 17.0 | 0.00 | 0.00 | 0.00 | 24 | 1026.8 |
| 20260906200019 | 74 | 234 | 8.0 | 19.0 | 0.00 | 0.00 | 0.00 | 25 | 1026.8 |
| 20260906195512 | 74 | 224 | 11.0 | 19.0 | 0.00 | 0.00 | 0.00 | 25 | 1026.9 |
| 20260906195014 | 74 | 238 | 13.0 | 19.0 | 0.00 | 0.00 | 0.00 | 25 | 1026.9 |
| 20260906194526 | 73 | 236 | 6.0 | 18.0 | 0.00 | 0.00 | 0.00 | 25 | 1026.9 |
| 20260906194015 | 74 | 220 | 11.0 | 18.0 | 0.00 | 0.00 | 0.00 | 24 | 1027.0 |
| 20260906193504 | 76 | 252 | 8.0 | 14.0 | 0.00 | 0.00 | 0.00 | 23 | 1027.0 |
| 20260906193004 | 75 | 298 | 5.0 | 13.0 | 0.00 | 0.00 | 0.00 | 24 | 1027.1 |
| 20260906192504 | 75 | 301 | 6.0 | 13.0 | 0.00 | 0.00 | 0.00 | 25 | 1027.2 |
| 20260906192007 | 74 | 274 | 6.0 | 11.0 | 0.00 | 0.00 | 0.00 | 26 | 1027.1 |
| 20260906191512 | 75 | 187 | 8.0 | 11.0 | 0.00 | 0.00 | 0.00 | 28 | 1027.3 |
| 20260906191009 | 74 | 287 | 3.0 | 10.0 | 0.00 | 0.00 | 0.00 | 25 | 1027.4 |
| 20260906190510 | 74 | 4 | 5.0 | 9.0 | 0.00 | 0.00 | 0.00 | 26 | 1027.5 |
| 20260906190022 | 72 | 44 | 6.0 | 10.0 | 0.00 | 0.00 | 0.00 | 27 | 1027.5 |
| 20260906185512 | 73 | 359 | 6.0 | 10.0 | 0.00 | 0.00 | 0.00 | 28 | 1027.5 |
| 20260906185017 | 72 | 305 | 5.0 | 12.0 | 0.00 | 0.00 | 0.00 | 30 | 1027.5 |
| 20260906184523 | 72 | 297 | 7.0 | 12.0 | 0.00 | 0.00 | 0.00 | 31 | 1027.7 |
| 20260906184012 | 72 | 269 | 9.0 | 11.0 | 0.00 | 0.00 | 0.00 | 31 | 1027.9 |
| 20260906183517 | 71 | 277 | 2.0 | 8.0 | 0.00 | 0.00 | 0.00 | 32 | 1027.9 |
| 20260906183034 | 71 | 276 | 5.0 | 9.0 | 0.00 | 0.00 | 0.00 | 32 | 1027.9 |
| 20260906182513 | 71 | 204 | 5.0 | 9.0 | 0.00 | 0.00 | 0.00 | 32 | 1028.2 |
| 20260906182005 | 71 | 198 | 6.0 | 9.0 | 0.00 | 0.00 | 0.00 | 32 | 1028.3 |
| 20260906181521 | 71 | 182 | 4.0 | 8.0 | 0.00 | 0.00 | 0.00 | 33 | 1028.3 |
| 20260906181004 | 71 | 285 | 2.0 | 9.0 | 0.00 | 0.00 | 0.00 | 33 | 1028.4 |
| 20260906180508 | 72 | 171 | 6.0 | 10.0 | 0.00 | 0.00 | 0.00 | 33 | 1028.5 |
| 20260906180012 | 71 | 219 | 6.0 | 10.0 | 0.00 | 0.00 | 0.00 | 33 | 1028.6 |
| 20260906175508 | 71 | 131 | 5.0 | 9.0 | 0.00 | 0.00 | 0.00 | 34 | 1028.9 |
| 20260906175013 | 71 | 113 | 3.0 | 9.0 | 0.00 | 0.00 | 0.00 | 35 | 1028.9 |
| 20260906174515 | 70 | 199 | 3.0 | 8.0 | 0.00 | 0.00 | 0.00 | 36 | 1029.0 |
| 20260906174010 | 70 | 239 | 4.0 | 7.0 | 0.00 | 0.00 | 0.00 | 36 | 1029.0 |
| 20260906173511 | 71 | 284 | 3.0 | 7.0 | 0.00 | 0.00 | 0.00 | 35 | 1029.0 |
| 20260906173025 | 70 | 333 | 2.0 | 7.0 | 0.00 | 0.00 | 0.00 | 36 | 1029.1 |
| 20260906172513 | 69 | 34 | 2.0 | 6.0 | 0.00 | 0.00 | 0.00 | 35 | 1029.2 |
| 20260906172017 | 67 | 201 | 1.0 | 7.0 | 0.00 | 0.00 | 0.00 | 39 | 1029.3 |
| 20260906171528 | 67 | 259 | 4.0 | 8.0 | 0.00 | 0.00 | 0.00 | 39 | 1029.4 |
| 20260906171019 | 68 | 238 | 4.0 | 8.0 | 0.00 | 0.00 | 0.00 | 39 | 1029.4 |
| 20260906170505 | 68 | 226 | 3.0 | 5.0 | 0.00 | 0.00 | 0.00 | 40 | 1029.4 |
| 20260906170008 | 67 | 238 | 1.0 | 4.0 | 0.00 | 0.00 | 0.00 | 42 | 1029.5 |
| 20260906165508 | 67 | 118 | 2.0 | 6.0 | 0.00 | 0.00 | 0.00 | 42 | 1029.5 |
| 20260906165005 | 66 | 198 | 3.0 | 6.0 | 0.00 | 0.00 | 0.00 | 42 | 1029.5 |
| 20260906164512 | 65 | 219 | 3.0 | 6.0 | 0.00 | 0.00 | 0.00 | 45 | 1029.6 |
| 20260906164012 | 64 | 293 | 1.0 | 6.0 | 0.00 | 0.00 | 0.00 | 44 | 1029.8 |
| 20260906163511 | 64 | 275 | 2.0 | 6.0 | 0.00 | 0.00 | 0.00 | 47 | 1029.8 |
| 20260906163024 | 65 | 254 | 4.0 | 9.0 | 0.00 | 0.00 | 0.00 | 47 | 1029.8 |
| 20260906162513 | 65 | 231 | 5.0 | 9.0 | 0.00 | 0.00 | 0.00 | 48 | 1029.9 |
| 20260906162014 | 65 | 201 | 2.0 | 6.0 | 0.00 | 0.00 | 0.00 | 48 | 1029.9 |
| 20260906161529 | 65 | 205 | 3.0 | 7.0 | 0.00 | 0.00 | 0.00 | 48 | 1029.9 |
| 20260906161018 | 64 | 58 | 3.0 | 7.0 | 0.00 | 0.00 | 0.00 | 49 | 1030.0 |
| 20260906160514 | 64 | 241 | 3.0 | 8.0 | 0.00 | 0.00 | 0.00 | 50 | 1030.0 |
| 20260906160036 | 63 | 196 | 5.0 | 8.0 | 0.00 | 0.00 | 0.00 | 50 | 1030.0 |
| 20260906155517 | 63 | 174 | 4.0 | 8.0 | 0.00 | 0.00 | 0.00 | 50 | 1030.1 |
| 20260906155022 | 63 | 235 | 4.0 | 6.0 | 0.00 | 0.00 | 0.00 | 50 | 1030.1 |
| 20260906154508 | 64 | 232 | 2.0 | 4.0 | 0.00 | 0.00 | 0.00 | 50 | 1029.9 |
| 20260906154009 | 64 | 266 | 1.0 | 2.0 | 0.00 | 0.00 | 0.00 | 50 | 1030.0 |
| 20260906153511 | 64 | 234 | 1.0 | 2.0 | 0.00 | 0.00 | 0.00 | 49 | 1029.9 |
| 20260906153015 | 63 | 110 | 1.0 | 4.0 | 0.00 | 0.00 | 0.00 | 51 | 1029.8 |
| 20260906152511 | 62 | 68 | 0.0 | 4.0 | 0.00 | 0.00 | 0.00 | 52 | 1029.8 |
| 20260906152012 | 62 | 117 | 2.0 | 4.0 | 0.00 | 0.00 | 0.00 | 54 | 1029.9 |
| 20260906151518 | 62 | 74 | 2.0 | 4.0 | 0.00 | 0.00 | 0.00 | 54 | 1030.1 |
| 20260906151014 | 61 | 60 | 2.0 | 4.0 | 0.00 | 0.00 | 0.00 | 56 | 1030.0 |
| 20260906150514 | 61 | 58 | 2.0 | 4.0 | 0.00 | 0.00 | 0.00 | 56 | 1030.1 |
| 20260906150025 | 62 | 68 | 2.0 | 4.0 | 0.00 | 0.00 | 0.00 | 55 | 1030.1 |
| 20260906145515 | 62 | 139 | 1.0 | 4.0 | 0.00 | 0.00 | 0.00 | 56 | 1030.1 |
| 20260906145016 | 60 | 60 | 1.0 | 4.0 | 0.00 | 0.00 | 0.00 | 55 | 1030.2 |
| 20260906144535 | 60 | 67 | 1.0 | 3.0 | 0.00 | 0.00 | 0.00 | 55 | 1030.3 |
| 20260906144021 | 59 | 71 | 1.0 | 2.0 | 0.00 | 0.00 | 0.00 | 60 | 1030.2 |
| 20260906143517 | 57 | 356 | 1.0 | 2.0 | 0.00 | 0.00 | 0.00 | 62 | 1030.1 |
| 20260906143007 | 55 | 321 | 1.0 | 1.0 | 0.00 | 0.00 | 0.00 | 65 | 1030.2 |
| 20260906142514 | 55 | 235 | 1.0 | 1.0 | 0.00 | 0.00 | 0.00 | 64 | 1030.3 |
| 20260906142008 | 55 | 235 | 0.0 | 2.0 | 0.00 | 0.00 | 0.00 | 64 | 1030.4 |
| 20260906141516 | 55 | 233 | 0.0 | 2.0 | 0.00 | 0.00 | 0.00 | 64 | 1030.2 |
| 20260906141010 | 56 | 233 | 1.0 | 3.0 | 0.00 | 0.00 | 0.00 | 62 | 1030.2 |
| 20260906140517 | 55 | 134 | 2.0 | 4.0 | 0.00 | 0.00 | 0.00 | 62 | 1030.2 |
| 20260906140039 | 55 | 87 | 2.0 | 4.0 | 0.00 | 0.00 | 0.00 | 64 | 1030.1 |
| 20260906135514 | 55 | 79 | 2.0 | 3.0 | 0.00 | 0.00 | 0.00 | 66 | 1030.1 |
| 20260906135015 | 55 | 74 | 1.0 | 3.0 | 0.00 | 0.00 | 0.00 | 67 | 1030.1 |
| 20260906134529 | 54 | 73 | 2.0 | 3.0 | 0.00 | 0.00 | 0.00 | 67 | 1029.9 |
| 20260906134020 | 54 | 73 | 1.0 | 2.0 | 0.00 | 0.00 | 0.00 | 68 | 1029.9 |
| 20260906133515 | 54 | 259 | 0.0 | 0.0 | 0.00 | 0.00 | 0.00 | 64 | 1029.8 |
| 20260906133030 | 53 | 259 | 0.0 | 0.0 | 0.00 | 0.00 | 0.00 | 66 | 1029.5 |
| 20260906132517 | 52 | 259 | 0.0 | 0.0 | 0.00 | 0.00 | 0.00 | 66 | 1029.6 |
| 20260906132018 | 52 | 259 | 0.0 | 0.0 | 0.00 | 0.00 | 0.00 | 66 | 1029.6 |
| 20260906131516 | 52 | 259 | 0.0 | 0.0 | 0.00 | 0.00 | 0.00 | 66 | 1029.6 |
| 20260906131009 | 51 | 259 | 0.0 | 0.0 | 0.00 | 0.00 | 0.00 | 69 | 1029.5 |
| 20260906130510 | 49 | 259 | 0.0 | 0.0 | 0.00 | 0.00 | 0.00 | 72 | 1029.5 |
| 20260906130036 | 49 | 259 | 0.0 | 0.0 | 0.00 | 0.00 | 0.00 | 71 | 1029.4 |
| 20260906125510 | 49 | 259 | 0.0 | 0.0 | 0.00 | 0.00 | 0.00 | 71 | 1029.4 |
| 20260906125020 | 49 | 259 | 0.0 | 0.0 | 0.00 | 0.00 | 0.00 | 72 | 1029.3 |
| 20260906124526 | 49 | 259 | 0.0 | 0.0 | 0.00 | 0.00 | 0.00 | 72 | 1029.3 |
| 20260906124020 | 49 | 259 | 0.0 | 0.0 | 0.00 | 0.00 | 0.00 | 72 | 1029.4 |
| 20260906123515 | 49 | 259 | 0.0 | 1.0 | 0.00 | 0.00 | 0.00 | 71 | 1029.3 |
| 20260906123035 | 49 | 259 | 0.0 | 2.0 | 0.00 | 0.00 | 0.00 | 71 | 1029.3 |
| 20260906122518 | 50 | 255 | 0.0 | 2.0 | 0.00 | 0.00 | 0.00 | 71 | 1029.3 |
| 20260906122018 | 50 | 276 | 0.0 | 0.0 | 0.00 | 0.00 | 0.00 | 71 | 1029.2 |
| 20260906121535 | 50 | 276 | 0.0 | 0.0 | 0.00 | 0.00 | 0.00 | 70 | 1029.3 |
| 20260906121015 | 50 | 340 | 0.0 | 0.0 | 0.00 | 0.00 | 0.00 | 70 | 1029.3 |
| 20260906120515 | 50 | 340 | 0.0 | 0.0 | 0.00 | 0.00 | 0.00 | 71 | 1029.2 |
| 20260906120033 | 50 | 340 | 0.0 | 1.0 | 0.00 | 0.00 | 0.00 | 69 | 1029.2 |
| 20260906115512 | 51 | 340 | 0.0 | 2.0 | 0.00 | 0.00 | 0.00 | 69 | 1029.2 |
| 20260906115011 | 51 | 340 | 1.0 | 2.0 | 0.00 | 0.00 | 0.00 | 68 | 1029.1 |
| 20260906114532 | 51 | 340 | 1.0 | 2.0 | 0.00 | 0.00 | 0.00 | 68 | 1029.2 |
| 20260906114016 | 52 | 110 | 0.0 | 0.0 | 0.00 | 0.00 | 0.00 | 67 | 1029.2 |
| 20260906113515 | 52 | 110 | 0.0 | 3.0 | 0.00 | 0.00 | 0.00 | 67 | 1029.2 |
| 20260906113040 | 52 | 110 | 1.0 | 3.0 | 0.00 | 0.00 | 0.00 | 67 | 1029.3 |
| 20260906112515 | 52 | 103 | 1.0 | 3.0 | 0.00 | 0.00 | 0.00 | 67 | 1029.3 |
| 20260906112020 | 52 | 94 | 2.0 | 4.0 | 0.00 | 0.00 | 0.00 | 67 | 1029.3 |
| 20260906111650 | 52 | 136 | 1.0 | 6.0 | 0.00 | 0.00 | 0.00 | 67 | 1029.3 |
| 20260906111648 | 52 | 82 | 4.0 | 6.0 | 0.00 | 0.00 | 0.00 | 66 | 1029.3 |
| 20260906111640 | 52 | 89 | 2.0 | 5.0 | 0.00 | 0.00 | 0.00 | 65 | 1029.2 |
| 20260906111637 | 52 | 236 | 0.0 | 1.0 | 0.00 | 0.00 | 0.00 | 65 | 1029.3 |
| 20260906104012 | 51 | 236 | 0.0 | 1.0 | 0.00 | 0.00 | 0.00 | 66 | 1029.2 |
| 20260906103514 | 51 | 236 | 1.0 | 2.0 | 0.00 | 0.00 | 0.00 | 66 | 1029.3 |
| 20260906103023 | 52 | 236 | 1.0 | 2.0 | 0.00 | 0.00 | 0.00 | 66 | 1029.3 |
| 20260906102514 | 52 | 236 | 2.0 | 2.0 | 0.00 | 0.00 | 0.00 | 65 | 1029.2 |
| 20260906102003 | 53 | 229 | 1.0 | 2.0 | 0.00 | 0.00 | 0.00 | 64 | 1029.2 |
| 20260906101504 | 52 | 195 | 2.0 | 2.0 | 0.00 | 0.00 | 0.00 | 64 | 1029.2 |
| 20260906101006 | 53 | 252 | 0.0 | 2.0 | 0.00 | 0.00 | 0.00 | 65 | 1029.1 |
| 20260906100505 | 53 | 252 | 1.0 | 2.0 | 0.00 | 0.00 | 0.00 | 65 | 1029.1 |
| 20260906100010 | 53 | 252 | 0.0 | 3.0 | 0.00 | 0.00 | 0.00 | 64 | 1029.1 |
| 20260906095507 | 53 | 252 | 2.0 | 3.0 | 0.00 | 0.00 | 0.00 | 63 | 1028.9 |
| 20260906095008 | 54 | 77 | 0.0 | 4.0 | 0.00 | 0.00 | 0.00 | 62 | 1028.9 |
| 20260906094520 | 54 | 75 | 0.0 | 4.0 | 0.00 | 0.00 | 0.00 | 62 | 1028.9 |
| 20260906094009 | 54 | 84 | 3.0 | 4.0 | 0.00 | 0.00 | 0.00 | 63 | 1028.9 |
| 20260906093512 | 53 | 89 | 0.0 | 4.0 | 0.00 | 0.00 | 0.00 | 64 | 1028.9 |
| 20260906093020 | 53 | 89 | 1.0 | 4.0 | 0.00 | 0.00 | 0.00 | 64 | 1028.9 |
| 20260906092514 | 53 | 217 | 1.0 | 2.0 | 0.00 | 0.00 | 0.00 | 63 | 1028.9 |
| 20260906092014 | 53 | 233 | 0.0 | 1.0 | 0.00 | 0.00 | 0.00 | 62 | 1028.9 |
| 20260906091528 | 54 | 233 | 0.0 | 1.0 | 0.00 | 0.00 | 0.00 | 61 | 1028.7 |
| 20260906091012 | 53 | 233 | 0.0 | 1.0 | 0.00 | 0.00 | 0.00 | 62 | 1028.7 |
| 20260906090506 | 53 | 233 | 0.0 | 0.0 | 0.00 | 0.00 | 0.00 | 63 | 1028.7 |
| 20260906090006 | 53 | 233 | 0.0 | 0.0 | 0.00 | 0.00 | 0.00 | 63 | 1028.8 |
| 20260906085506 | 53 | 233 | 0.0 | 0.0 | 0.00 | 0.00 | 0.00 | 64 | 1028.8 |
| 20260906085010 | 53 | 233 | 0.0 | 0.0 | 0.00 | 0.00 | 0.00 | 64 | 1028.8 |
| 20260906084516 | 53 | 233 | 0.0 | 0.0 | 0.00 | 0.00 | 0.00 | 64 | 1028.8 |
| 20260906084007 | 53 | 233 | 0.0 | 0.0 | 0.00 | 0.00 | 0.00 | 64 | 1028.8 |
| 20260906083511 | 52 | 233 | 0.0 | 0.0 | 0.00 | 0.00 | 0.00 | 65 | 1028.7 |
| 20260906083022 | 52 | 233 | 0.0 | 0.0 | 0.00 | 0.00 | 0.00 | 65 | 1028.6 |
| 20260906082513 | 52 | 233 | 0.0 | 2.0 | 0.00 | 0.00 | 0.00 | 65 | 1028.7 |
| 20260906082012 | 53 | 233 | 0.0 | 2.0 | 0.00 | 0.00 | 0.00 | 64 | 1028.9 |
| 20260906081532 | 54 | 233 | 2.0 | 2.0 | 0.00 | 0.00 | 0.00 | 63 | 1028.9 |
| 20260906081015 | 54 | 222 | 0.0 | 3.0 | 0.00 | 0.00 | 0.00 | 62 | 1028.8 |
| 20260906080513 | 55 | 222 | 0.0 | 3.0 | 0.00 | 0.00 | 0.00 | 60 | 1028.7 |
| 20260906080026 | 55 | 233 | 2.0 | 4.0 | 0.00 | 0.00 | 0.00 | 60 | 1028.9 |
| 20260906075514 | 55 | 156 | 2.0 | 4.0 | 0.00 | 0.00 | 0.00 | 60 | 1028.8 |
| 20260906075004 | 54 | 167 | 3.0 | 4.0 | 0.00 | 0.00 | 0.00 | 61 | 1028.7 |
| 20260906074508 | 55 | 208 | 2.0 | 2.0 | 0.00 | 0.00 | 0.00 | 60 | 1028.8 |
| 20260906074005 | 56 | 241 | 0.0 | 1.0 | 0.00 | 0.00 | 0.00 | 57 | 1028.7 |
| 20260906073508 | 57 | 265 | 0.0 | 1.0 | 0.00 | 0.00 | 0.00 | 56 | 1028.6 |
| 20260906073011 | 56 | 276 | 0.0 | 4.0 | 0.00 | 0.00 | 0.00 | 57 | 1028.7 |
| 20260906072509 | 57 | 276 | 1.0 | 4.0 | 0.00 | 0.00 | 0.00 | 55 | 1028.8 |
| 20260906072010 | 59 | 269 | 2.0 | 4.0 | 0.00 | 0.00 | 0.00 | 53 | 1028.8 |
| 20260906071520 | 59 | 29 | 0.0 | 1.0 | 0.00 | 0.00 | 0.00 | 52 | 1028.7 |
| 20260906071012 | 59 | 29 | 0.0 | 3.0 | 0.00 | 0.00 | 0.00 | 52 | 1028.7 |
| 20260906070512 | 58 | 29 | 0.0 | 3.0 | 0.00 | 0.00 | 0.00 | 53 | 1028.7 |
| 20260906070023 | 58 | 32 | 1.0 | 3.0 | 0.00 | 0.00 | 0.00 | 54 | 1028.8 |
| 20260906065514 | 58 | 248 | 0.0 | 0.0 | 0.00 | 0.00 | 0.00 | 54 | 1028.8 |
| 20260906065016 | 58 | 248 | 0.0 | 0.0 | 0.00 | 0.00 | 0.00 | 54 | 1028.8 |
| 20260906064534 | 58 | 248 | 0.0 | 0.0 | 0.00 | 0.00 | 0.00 | 53 | 1028.8 |
| 20260906064015 | 59 | 248 | 0.0 | 0.0 | 0.00 | 0.00 | 0.00 | 53 | 1028.9 |
| 20260906063515 | 59 | 312 | 0.0 | 0.0 | 0.00 | 0.00 | 0.00 | 52 | 1028.9 |
| 20260906063008 | 59 | 312 | 0.0 | 0.0 | 0.00 | 0.00 | 0.00 | 52 | 1028.9 |
| 20260906062504 | 58 | 315 | 0.0 | 1.0 | 0.00 | 0.00 | 0.00 | 53 | 1029.0 |
| 20260906062008 | 58 | 315 | 0.0 | 2.0 | 0.00 | 0.00 | 0.00 | 54 | 1029.1 |
| 20260906061513 | 58 | 359 | 0.0 | 2.0 | 0.00 | 0.00 | 0.00 | 56 | 1029.1 |
| 20260906061008 | 57 | 8 | 1.0 | 2.0 | 0.00 | 0.00 | 0.00 | 56 | 1029.1 |
| 20260906060512 | 57 | 8 | 1.0 | 3.0 | 0.00 | 0.00 | 0.00 | 56 | 1029.1 |
| 20260906060019 | 57 | 312 | 0.0 | 3.0 | 0.00 | 0.00 | 0.00 | 56 | 1029.2 |
| 20260906055512 | 57 | 311 | 2.0 | 3.0 | 0.00 | 0.00 | 0.00 | 56 | 1029.2 |
| 20260906055012 | 58 | 79 | 0.0 | 1.0 | 0.00 | 0.00 | 0.00 | 56 | 1029.2 |
| 20260906054524 | 58 | 79 | 0.0 | 1.0 | 0.00 | 0.00 | 0.00 | 55 | 1029.2 |
| 20260906054013 | 59 | 79 | 0.0 | 2.0 | 0.00 | 0.00 | 0.00 | 55 | 1029.2 |
| 20260906053516 | 59 | 79 | 1.0 | 2.0 | 0.00 | 0.00 | 0.00 | 54 | 1029.3 |
| 20260906053035 | 59 | 338 | 0.0 | 1.0 | 0.00 | 0.00 | 0.00 | 54 | 1029.2 |
| 20260906052516 | 59 | 338 | 0.0 | 1.0 | 0.00 | 0.00 | 0.00 | 54 | 1029.3 |
| 20260906052018 | 59 | 336 | 0.0 | 2.0 | 0.00 | 0.00 | 0.00 | 54 | 1029.3 |
| 20260906051509 | 59 | 336 | 1.0 | 2.0 | 0.00 | 0.00 | 0.00 | 54 | 1029.3 |
| 20260906051008 | 59 | 350 | 2.0 | 3.0 | 0.00 | 0.00 | 0.00 | 54 | 1029.3 |
| 20260906050508 | 58 | 336 | 2.0 | 3.0 | 0.00 | 0.00 | 0.00 | 55 | 1029.3 |
| 20260906050043 | 58 | 323 | 2.0 | 4.0 | 0.00 | 0.00 | 0.00 | 55 | 1029.3 |
| 20260906045508 | 58 | 359 | 2.0 | 5.0 | 0.00 | 0.00 | 0.00 | 55 | 1029.3 |
| 20260906045010 | 58 | 4 | 3.0 | 5.0 | 0.00 | 0.00 | 0.00 | 56 | 1029.3 |
| 20260906044518 | 58 | 1 | 2.0 | 4.0 | 0.00 | 0.00 | 0.00 | 57 | 1029.4 |
| 20260906044014 | 58 | 12 | 2.0 | 2.0 | 0.00 | 0.00 | 0.00 | 59 | 1029.4 |
| 20260906043512 | 57 | 360 | 1.0 | 3.0 | 0.00 | 0.00 | 0.00 | 59 | 1029.4 |
| 20260906043027 | 57 | 359 | 1.0 | 5.0 | 0.00 | 0.00 | 0.00 | 59 | 1029.5 |
| 20260906042515 | 58 | 339 | 2.0 | 8.0 | 0.00 | 0.00 | 0.00 | 58 | 1029.6 |
| 20260906042013 | 58 | 188 | 4.0 | 8.0 | 0.00 | 0.00 | 0.00 | 57 | 1029.8 |
| 20260906041531 | 59 | 157 | 5.0 | 8.0 | 0.00 | 0.00 | 0.00 | 56 | 1029.6 |
| 20260906041017 | 60 | 142 | 1.0 | 3.0 | 0.00 | 0.00 | 0.00 | 54 | 1029.5 |
| 20260906040515 | 59 | 190 | 1.0 | 3.0 | 0.00 | 0.00 | 0.00 | 55 | 1029.4 |
| 20260906040035 | 59 | 159 | 3.0 | 3.0 | 0.00 | 0.00 | 0.00 | 56 | 1029.5 |
| 20260906035508 | 60 | 208 | 1.0 | 2.0 | 0.00 | 0.00 | 0.00 | 55 | 1029.4 |
| 20260906035009 | 60 | 236 | 2.0 | 3.0 | 0.00 | 0.00 | 0.00 | 54 | 1029.4 |
| 20260906034523 | 61 | 113 | 1.0 | 7.0 | 0.00 | 0.00 | 0.00 | 53 | 1029.4 |
| 20260906034011 | 61 | 66 | 3.0 | 7.0 | 0.00 | 0.00 | 0.00 | 53 | 1029.4 |
| 20260906033511 | 61 | 122 | 4.0 | 6.0 | 0.00 | 0.00 | 0.00 | 52 | 1029.3 |
| 20260906033025 | 61 | 100 | 4.0 | 6.0 | 0.00 | 0.00 | 0.00 | 52 | 1029.3 |
| 20260906032511 | 61 | 89 | 3.0 | 4.0 | 0.00 | 0.00 | 0.00 | 52 | 1029.2 |
| 20260906032015 | 61 | 77 | 2.0 | 3.0 | 0.00 | 0.00 | 0.00 | 54 | 1029.2 |
| 20260906031529 | 60 | 55 | 1.0 | 3.0 | 0.00 | 0.00 | 0.00 | 54 | 1029.1 |
| 20260906031016 | 61 | 55 | 1.0 | 3.0 | 0.00 | 0.00 | 0.00 | 53 | 1029.1 |
| 20260906030519 | 61 | 55 | 1.0 | 3.0 | 0.00 | 0.00 | 0.00 | 52 | 1028.9 |
| 20260906030029 | 62 | 78 | 1.0 | 4.0 | 0.00 | 0.00 | 0.00 | 51 | 1028.9 |
| 20260906025517 | 62 | 76 | 2.0 | 4.0 | 0.00 | 0.00 | 0.00 | 50 | 1028.9 |
| 20260906025018 | 62 | 83 | 3.0 | 4.0 | 0.00 | 0.00 | 0.00 | 50 | 1028.8 |
| 20260906024536 | 62 | 79 | 4.0 | 6.0 | 0.00 | 0.00 | 0.00 | 49 | 1028.7 |
| 20260906024009 | 62 | 79 | 4.0 | 6.0 | 0.00 | 0.00 | 0.00 | 49 | 1028.7 |
| 20260906023513 | 62 | 70 | 5.0 | 6.0 | 0.00 | 0.00 | 0.00 | 49 | 1028.7 |
| 20260906023024 | 62 | 82 | 4.0 | 6.0 | 0.00 | 0.00 | 0.00 | 48 | 1028.6 |
| 20260906022512 | 63 | 75 | 4.0 | 6.0 | 0.00 | 0.00 | 0.00 | 47 | 1028.6 |
| 20260906022015 | 63 | 117 | 3.0 | 3.0 | 0.00 | 0.00 | 0.00 | 46 | 1028.6 |
| 20260906021524 | 63 | 124 | 0.0 | 2.0 | 0.00 | 0.00 | 0.00 | 46 | 1028.6 |
| 20260906021014 | 63 | 118 | 1.0 | 5.0 | 0.00 | 0.00 | 0.00 | 46 | 1028.5 |
| 20260906020518 | 63 | 83 | 3.0 | 5.0 | 0.00 | 0.00 | 0.00 | 47 | 1028.4 |
| 20260906020029 | 63 | 68 | 4.0 | 5.0 | 0.00 | 0.00 | 0.00 | 47 | 1028.4 |
| 20260906015513 | 63 | 65 | 4.0 | 5.0 | 0.00 | 0.00 | 0.00 | 48 | 1028.4 |
| 20260906015018 | 63 | 68 | 4.0 | 5.0 | 0.00 | 0.00 | 0.00 | 48 | 1028.5 |
| 20260906014533 | 63 | 67 | 4.0 | 4.0 | 0.00 | 0.00 | 0.00 | 49 | 1028.5 |
| 20260906014018 | 63 | 70 | 2.0 | 3.0 | 0.00 | 0.00 | 0.00 | 49 | 1028.4 |
| 20260906013514 | 63 | 70 | 2.0 | 3.0 | 0.00 | 0.00 | 0.00 | 49 | 1028.4 |
| 20260906013034 | 63 | 89 | 2.0 | 3.0 | 0.00 | 0.00 | 0.00 | 49 | 1028.5 |
| 20260906012510 | 63 | 58 | 0.0 | 6.0 | 0.00 | 0.00 | 0.00 | 49 | 1028.5 |
| 20260906012013 | 63 | 60 | 3.0 | 6.0 | 0.00 | 0.00 | 0.00 | 49 | 1028.5 |
| 20260906011517 | 64 | 51 | 4.0 | 8.0 | 0.00 | 0.00 | 0.00 | 49 | 1028.6 |
| 20260906011010 | 64 | 98 | 6.0 | 8.0 | 0.00 | 0.00 | 0.00 | 48 | 1028.7 |
| 20260906010516 | 64 | 74 | 4.0 | 7.0 | 0.00 | 0.00 | 0.00 | 49 | 1028.8 |
| 20260906010026 | 64 | 68 | 4.0 | 7.0 | 0.00 | 0.00 | 0.00 | 49 | 1028.8 |
| 20260906005517 | 64 | 63 | 3.0 | 6.0 | 0.00 | 0.00 | 0.00 | 49 | 1028.8 |
| 20260906005015 | 64 | 49 | 2.0 | 6.0 | 0.00 | 0.00 | 0.00 | 48 | 1028.8 |
| 20260906004527 | 65 | 73 | 2.0 | 6.0 | 0.00 | 0.00 | 0.00 | 48 | 1028.8 |
| 20260906004016 | 65 | 64 | 2.0 | 6.0 | 0.00 | 0.00 | 0.00 | 47 | 1028.8 |
| 20260906003518 | 66 | 70 | 2.0 | 5.0 | 0.00 | 0.00 | 0.00 | 47 | 1028.9 |
| 20260906003032 | 66 | 49 | 1.0 | 4.0 | 0.00 | 0.00 | 0.00 | 46 | 1028.8 |
| 20260906002518 | 66 | 126 | 2.0 | 8.0 | 0.00 | 0.00 | 0.00 | 45 | 1028.9 |
| 20260906002016 | 66 | 122 | 3.0 | 8.0 | 0.00 | 0.00 | 0.00 | 45 | 1028.9 |
| 20260906001532 | 67 | 75 | 3.0 | 9.0 | 0.00 | 0.00 | 0.00 | 41 | 1028.8 |
| 20260906001011 | 67 | 107 | 2.0 | 11.0 | 0.00 | 0.00 | 0.00 | 40 | 1028.7 |
| 20260906000511 | 68 | 108 | 8.0 | 11.0 | 0.00 | 0.00 | 0.00 | 39 | 1028.7 |
| 20260906000024 | 68 | 130 | 4.0 | 10.0 | 0.00 | 0.00 | 0.00 | 39 | 1028.6 |
| 20260905235515 | 68 | 147 | 5.0 | 10.0 | 0.00 | 0.00 | 0.00 | 38 | 1028.5 |
| 20260905235002 | 68 | 69 | 4.0 | 7.0 | 0.00 | 0.00 | 0.00 | 38 | 1028.4 |
| 20260905234506 | 69 | 47 | 3.0 | 7.0 | 0.00 | 0.00 | 0.00 | 37 | 1028.3 |
| 20260905234003 | 69 | 52 | 4.0 | 7.0 | 0.00 | 0.00 | 0.00 | 37 | 1028.4 |
| 20260905233505 | 69 | 49 | 4.0 | 7.0 | 0.00 | 0.00 | 0.00 | 37 | 1028.2 |
| 20260905233003 | 69 | 91 | 4.0 | 7.0 | 0.00 | 0.00 | 0.00 | 39 | 1028.2 |
| 20260905232509 | 69 | 104 | 4.0 | 8.0 | 0.00 | 0.00 | 0.00 | 40 | 1028.0 |
| 20260905232008 | 69 | 44 | 3.0 | 13.0 | 0.00 | 0.00 | 0.00 | 40 | 1028.0 |
| 20260905231512 | 69 | 58 | 5.0 | 13.0 | 0.00 | 0.00 | 0.00 | 38 | 1028.2 |
| 20260905231011 | 69 | 102 | 7.0 | 12.0 | 0.00 | 0.00 | 0.00 | 37 | 1028.2 |
| 20260905230509 | 70 | 70 | 4.0 | 11.0 | 0.00 | 0.00 | 0.00 | 36 | 1028.2 |
| 20260905230015 | 70 | 58 | 7.0 | 12.0 | 0.00 | 0.00 | 0.00 | 35 | 1028.2 |
| 20260905225512 | 70 | 130 | 5.0 | 12.0 | 0.00 | 0.00 | 0.00 | 37 | 1028.2 |
| 20260905225010 | 70 | 68 | 6.0 | 10.0 | 0.00 | 0.00 | 0.00 | 35 | 1028.2 |
| 20260905224521 | 70 | 124 | 7.0 | 10.0 | 0.00 | 0.00 | 0.00 | 35 | 1028.1 |
| 20260905224013 | 70 | 96 | 6.0 | 10.0 | 0.00 | 0.00 | 0.00 | 35 | 1028.1 |
| 20260905223502 | 70 | 96 | 3.0 | 10.0 | 0.00 | 0.00 | 0.00 | 34 | 1028.0 |
| 20260905223004 | 70 | 122 | 5.0 | 10.0 | 0.00 | 0.00 | 0.00 | 34 | 1028.0 |
| 20260905222503 | 70 | 79 | 5.0 | 9.0 | 0.00 | 0.00 | 0.00 | 34 | 1028.0 |
| 20260905222009 | 70 | 101 | 2.0 | 9.0 | 0.00 | 0.00 | 0.00 | 34 | 1027.9 |
| 20260905221507 | 70 | 53 | 4.0 | 13.0 | 0.00 | 0.00 | 0.00 | 34 | 1027.9 |
| 20260905221003 | 70 | 63 | 6.0 | 13.0 | 0.00 | 0.00 | 0.00 | 33 | 1027.9 |